GW7008 Weather Reports


time (UTC)temp
F
wind
direction
speed
knots
gust
knots
rain 1hr
in
rain 24hr
in
rain mn
in
humidity
%
barometer
mb
20260506044534 65 1 0.0 1.7 0.00 0.00 0.00 68 1013.6
20260506043027 65 1 0.0 1.7 0.00 0.00 0.00 67 1013.5
20260506041538 66 1 0.0 1.7 0.00 0.00 0.00 69 1013.4
20260506040017 65 1 0.0 0.9 0.00 0.00 0.00 67 1013.3
20260506034504 65 1 0.0 0.0 0.00 0.00 0.00 66 1013.5
20260506033007 65 1 0.0 0.0 0.00 0.00 0.00 67 1013.6
20260506031509 65 1 0.0 1.7 0.00 0.00 0.00 68 1013.8
20260506030016 65 1 0.0 0.0 0.00 0.00 0.00 69 1013.8
20260506024523 65 1 0.0 1.7 0.00 0.00 0.00 68 1013.6
20260506023012 65 1 0.0 0.0 0.00 0.00 0.00 69 1013.6
20260506021507 65 1 0.0 0.0 0.00 0.00 0.00 68 1013.5
20260506020014 65 1 0.0 0.0 0.00 0.00 0.00 68 1013.5
20260506014518 66 1 0.0 0.0 0.00 0.00 0.00 65 1013.5
20260506013024 67 1 0.0 0.0 0.00 0.00 0.00 63 1013.4
20260506011509 68 1 0.0 0.0 0.00 0.00 0.00 62 1013.2
20260506010012 69 1 0.0 0.0 0.00 0.00 0.00 59 1013.2
20260506004533 70 1 0.0 0.0 0.00 0.00 0.00 54 1013.2
20260506003022 71 1 0.0 0.0 0.00 0.00 0.00 51 1013.2
20260506001524 72 1 0.0 0.0 0.00 0.00 0.00 49 1013.4
20260506000008 73 1 0.0 1.7 0.00 0.00 0.00 49 1013.2
20260505234516 73 1 0.0 1.7 0.00 0.00 0.00 46 1013.2
20260505233027 74 1 0.0 1.7 0.00 0.00 0.00 47 1013.2
20260505231533 75 1 0.0 1.7 0.00 0.00 0.00 48 1013.3
20260505230028 75 1 0.0 1.7 0.00 0.00 0.00 46 1013.4
20260505224512 76 1 0.0 2.6 0.00 0.00 0.00 45 1013.4
20260505223020 76 117 0.0 1.7 0.00 0.00 0.00 45 1013.3
20260505221522 76 115 0.0 1.7 0.00 0.00 0.00 43 1013.2
20260505220044 76 150 0.9 2.6 0.00 0.00 0.00 40 1013.3
20260505214532 78 126 0.0 2.6 0.00 0.00 0.00 39 1013.3
20260505213021 78 143 0.9 2.6 0.00 0.00 0.00 40 1013.3
20260505211520 79 139 0.9 1.7 0.00 0.00 0.00 42 1013.5
20260505210024 78 56 0.9 2.6 0.00 0.00 0.00 40 1013.4
20260505204527 78 160 0.9 2.6 0.00 0.00 0.00 39 1013.5
20260505203026 78 132 0.9 1.7 0.00 0.00 0.00 41 1013.7
20260505201519 78 173 0.0 2.6 0.00 0.00 0.00 40 1013.8
20260505200024 79 359 0.9 3.5 0.00 0.00 0.00 37 1014.0
20260505194525 79 127 0.9 3.5 0.00 0.00 0.00 39 1014.1
20260505193034 79 132 0.9 1.7 0.00 0.00 0.00 38 1014.2
20260505191522 79 71 0.9 1.7 0.00 0.00 0.00 38 1014.3
20260505190023 79 105 0.9 1.7 0.00 0.00 0.00 40 1014.4
20260505184504 78 116 0.0 2.6 0.00 0.00 0.00 42 1014.5
20260505183012 78 2 0.9 2.6 0.00 0.00 0.00 39 1014.9
20260505181515 79 72 0.9 2.6 0.00 0.00 0.00 38 1015.0
20260505180004 79 81 0.0 1.7 0.00 0.00 0.00 41 1015.3
20260505174505 78 27 1.7 4.3 0.00 0.00 0.00 37 1015.5
20260505173006 77 145 0.9 3.5 0.00 0.00 0.00 42 1015.6
20260505171513 77 147 0.0 1.7 0.00 0.00 0.00 42 1015.7
20260505170017 76 143 0.9 1.7 0.00 0.00 0.00 44 1015.5
20260505164506 73 124 0.9 4.3 0.00 0.00 0.00 50 1015.8
20260505163008 73 127 1.7 5.2 0.00 0.00 0.00 45 1015.8
20260505161512 72 20 1.7 5.2 0.00 0.00 0.00 45 1015.9
20260505153005 69 238 0.0 2.6 0.00 0.00 0.00 59 1016.0
20260505151509 68 356 0.9 2.6 0.00 0.00 0.00 60 1016.4
20260505124521 56 53 0.0 1.7 0.00 0.00 0.00 77 1015.5
20260505123021 53 95 0.0 0.9 0.00 0.00 0.00 82 1015.5
20260505121524 52 106 0.0 0.0 0.00 0.00 0.00 85 1015.7
20260505120007 51 105 0.0 0.0 0.00 0.00 0.00 86 1015.5
20260505114515 50 109 0.0 0.0 0.00 0.00 0.00 84 1015.2
20260505113018 50 109 0.0 0.0 0.00 0.00 0.00 84 1014.9
20260505111520 50 109 0.0 0.0 0.00 0.00 0.00 82 1014.9
20260505101520 52 109 0.0 0.9 0.00 0.00 0.00 87 1014.7
20260505100024 51 109 0.9 1.7 0.00 0.00 0.00 86 1014.6
20260505094511 51 109 0.0 0.0 0.00 0.00 0.00 82 1014.5
20260505093013 51 109 0.0 0.0 0.00 0.00 0.00 80 1014.4
20260505091517 52 109 0.0 0.0 0.00 0.00 0.00 80 1014.6
20260505090003 52 109 0.0 0.0 0.00 0.00 0.00 78 1014.6
20260505084510 53 109 0.0 0.0 0.00 0.00 0.00 79 1014.6
20260505083010 53 109 0.0 0.0 0.00 0.00 0.00 79 1014.7
20260505081519 54 109 0.0 0.0 0.00 0.00 0.00 78 1014.8
20260505080020 54 109 0.0 0.0 0.00 0.00 0.00 76 1014.7
20260505074507 55 109 0.0 0.0 0.00 0.00 0.00 75 1014.7
20260505073008 55 109 0.0 1.7 0.00 0.00 0.00 73 1014.7
20260505071516 56 109 0.0 1.7 0.00 0.00 0.00 73 1014.6
20260505070016 56 109 0.0 0.9 0.00 0.00 0.00 72 1014.5
20260505064521 57 109 0.0 0.0 0.00 0.00 0.00 71 1014.6
20260505063005 57 109 0.0 0.0 0.00 0.00 0.00 71 1014.7
20260505061510 57 109 0.0 0.0 0.00 0.00 0.00 70 1014.9
20260505060014 58 109 0.0 0.0 0.00 0.00 0.00 69 1015.0